Douglas Bisbee, AZ

12:48 AM MST on August 21, 2017 (GMT -0700)
Bisbee Douglas International

Weather History for KDUG - November, 2012

Change the Weather History Date:

Thursday, November 1, 2012

  Actual Average Record
Temperature  
Mean Temperature 62 °F 59 °F  
Max Temperature 82 °F 76 °F 88 °F (2011)
Min Temperature 42 °F 41 °F 25 °F (1972)
Degree Days  
Heating Degree Days 3 7  
Month to date heating degree days 3 7  
Since 1 July heating degree days 50 90  
Cooling Degree Days 0 0  
Month to date cooling degree days 0 0  
Year to date cooling degree days 2055 1812  
Growing Degree Days 13 (Base 50)    
Moisture  
Dew Point 21 °F    
Average Humidity 23    
Maximum Humidity 33    
Minimum Humidity 12    
Precipitation  
Precipitation 0.00 in 0.03 in 0.31 in (1987)
Month to date precipitation 0.00 0.03  
Year to date precipitation 7.15 11.47  
Snow  
Snow 0.00 in - - ()
Month to date snowfall 0.0  
Snow Depth 0.00 in    
Sea Level Pressure  
Sea Level Pressure 29.96 in    
Wind  
Wind Speed 4 mph (SSE)    
Max Wind Speed 14 mph    
Max Gust Speed 18 mph    
Visibility 10 miles    
Events      
T = Trace of Precipitation, MM = Missing Value Source: NWS Daily Summary

Daily Weather History Graph

Daily Weather History Graph

Search for Another Location

Airport or City:

Trip Planner

Search our weather history database for the weather conditions in past years. The results will help you decide how hot, cold, wet, or windy it might be!

Date:

Astronomy

Nov. 01, 2012 Rise Set
Actual Time 6:34 AM MST 5:28 PM MST
Civil Twilight 6:09 AM MST 5:53 PM MST
Nautical Twilight 5:40 AM MST 6:22 PM MST
Astronomical Twilight 5:12 AM MST 6:51 PM MST
Moon 7:36 PM MST (11/1) 9:02 AM MST (11/1)
Length of Visible Light 11h 44m
Length of Day
10h 54m
Waning Gibbous, 92% of the Moon is Illuminated
Nov 1
Waning Gibbous
Nov 6
Last Quarter
Nov 13
New
Nov 20
First Quarter
Nov 28
Full

Hourly Weather History & Observations

Time (MST) Temp. Windchill Dew Point Humidity Pressure Visibility Wind Dir Wind Speed Gust Speed Precip Events Conditions
12:56 AM 55.0 °F - 19.0 °F 24% 29.94 in 10.0 mi NNE 10.4 mph - N/A   Clear
1:56 AM 48.9 °F - 18.0 °F 29% 29.96 in 10.0 mi Calm Calm - N/A   Clear
2:56 AM 46.9 °F - 17.1 °F 30% 29.96 in 10.0 mi Calm Calm - N/A   Clear
3:56 AM 44.6 °F - 17.6 °F 34% 30.10 in 10.0 mi Calm Calm - N/A   Clear
4:56 AM 44.6 °F - 15.8 °F 31% 30.11 in 10.0 mi Calm Calm - N/A   Clear
5:56 AM 44.1 °F 42.5 °F 18.0 °F 35% 29.99 in 10.0 mi East 3.5 mph - N/A   Clear
6:56 AM 44.1 °F - 17.1 °F 34% 30.03 in 10.0 mi Calm Calm - N/A   Clear
7:56 AM 48.9 °F - 18.0 °F 29% 30.03 in 10.0 mi Calm Calm - N/A   Clear
8:56 AM 59.0 °F - 19.4 °F 22% 30.14 in 10.0 mi Calm Calm - N/A   Clear
9:56 AM 66.9 °F - 19.9 °F 17% 29.99 in 10.0 mi Calm Calm - N/A   Clear
10:56 AM 72.0 °F - 21.0 °F 15% 29.97 in 10.0 mi South 3.5 mph - N/A   Clear
11:56 AM 77.0 °F - 21.9 °F 13% 29.93 in 10.0 mi South 5.8 mph - N/A   Clear
12:56 PM 79.0 °F - 23.0 °F 13% 29.90 in 10.0 mi South 4.6 mph - N/A   Clear
1:56 PM 80.1 °F - 23.0 °F 12% 29.88 in 10.0 mi South 3.5 mph - N/A   Clear
2:35 PM 82.4 °F - 23.0 °F 11% 30.02 in 10.0 mi SE 9.2 mph - N/A   Partly Cloudy
2:56 PM 81.0 °F - 23.0 °F 12% 29.87 in 10.0 mi South 8.1 mph - N/A   Clear
3:56 PM 80.1 °F - 23.0 °F 12% 29.86 in 10.0 mi WSW 9.2 mph - N/A   Clear
4:56 PM 79.0 °F - 23.0 °F 13% 29.86 in 10.0 mi South 6.9 mph - N/A   Clear
5:56 PM 71.1 °F - 21.9 °F 16% 29.89 in 10.0 mi South 5.8 mph - N/A   Clear
6:56 PM 69.1 °F - 23.0 °F 18% 29.91 in 10.0 mi South 3.5 mph - N/A   Clear
7:56 PM 66.9 °F - 23.0 °F 19% 29.91 in 10.0 mi Calm Calm - N/A   Clear
8:56 PM 57.0 °F - 19.9 °F 24% 29.92 in 10.0 mi East 5.8 mph - N/A   Clear
9:56 PM 57.0 °F - 21.0 °F 25% 29.91 in 10.0 mi NE 8.1 mph - N/A   Clear
10:56 PM 60.1 °F - 25.0 °F 26% 29.90 in 10.0 mi North 3.5 mph - N/A   Clear
11:56 PM 54.0 °F - 23.0 °F 30% 29.91 in 10.0 mi North 3.5 mph - N/A   Clear